TimeCST,TemperatureF,Dew PointF,Humidity,Sea Level PressureIn,VisibilityMPH,Wind Direction,Wind SpeedMPH,Gust SpeedMPH,PrecipitationIn,Events,Conditions,WindDirDegrees,DateUTC
12:52 AM,41.0,33.1,73,30.34,10.0,Calm,Calm,-,N/A,,Clear,0,2012-11-17 06:52:00
1:52 AM,39.9,33.1,77,30.33,10.0,South,5.8,-,N/A,,Clear,190,2012-11-17 07:52:00
2:52 AM,43.0,33.1,68,30.33,10.0,South,6.9,-,N/A,,Clear,190,2012-11-17 08:52:00
3:52 AM,42.1,33.1,70,30.31,10.0,SSW,6.9,-,N/A,,Clear,200,2012-11-17 09:52:00
4:52 AM,39.9,30.9,70,30.31,10.0,South,4.6,-,N/A,,Clear,190,2012-11-17 10:52:00
5:52 AM,37.9,30.9,76,30.31,10.0,SSW,5.8,-,N/A,,Clear,210,2012-11-17 11:52:00
6:52 AM,41.0,30.9,67,30.33,10.0,South,4.6,-,N/A,,Clear,190,2012-11-17 12:52:00
7:52 AM,35.1,30.0,82,30.33,10.0,Calm,Calm,-,N/A,,Clear,0,2012-11-17 13:52:00
8:52 AM,46.9,34.0,61,30.32,10.0,South,3.5,-,N/A,,Clear,170,2012-11-17 14:52:00
9:52 AM,53.6,33.8,47,30.30,10.0,South,8.1,18.4,N/A,,Clear,190,2012-11-17 15:52:00
10:52 AM,59.0,33.1,38,30.30,10.0,South,17.3,29.9,N/A,,Clear,190,2012-11-17 16:52:00
11:52 AM,61.0,32.0,34,30.27,10.0,SSW,19.6,32.2,N/A,,Clear,200,2012-11-17 17:52:00
12:52 PM,63.0,33.1,33,30.24,10.0,SSW,15.0,28.8,N/A,,Clear,200,2012-11-17 18:52:00
1:52 PM,63.0,33.1,33,30.21,10.0,SSW,19.6,29.9,N/A,,Clear,200,2012-11-17 19:52:00
2:52 PM,63.0,32.0,31,30.19,10.0,South,19.6,28.8,N/A,,Clear,180,2012-11-17 20:52:00
3:52 PM,62.1,32.0,32,30.20,10.0,South,19.6,25.3,N/A,,Clear,170,2012-11-17 21:52:00
4:52 PM,59.0,32.0,36,30.21,10.0,South,12.7,-,N/A,,Clear,180,2012-11-17 22:52:00
5:52 PM,55.9,30.9,39,30.21,10.0,South,6.9,16.1,N/A,,Clear,190,2012-11-17 23:52:00
6:52 PM,52.0,30.9,45,30.23,10.0,Variable,3.5,-,N/A,,Clear,0,2012-11-18 00:52:00
7:52 PM,51.1,30.9,46,30.24,10.0,South,10.4,-,N/A,,Clear,180,2012-11-18 01:52:00
8:52 PM,50.0,28.0,43,30.23,10.0,South,9.2,-,N/A,,Clear,180,2012-11-18 02:52:00
9:52 PM,50.0,27.0,41,30.22,10.0,South,6.9,-,N/A,,Clear,180,2012-11-18 03:52:00
10:52 PM,50.0,26.1,39,30.21,10.0,South,8.1,-,N/A,,Clear,190,2012-11-18 04:52:00
11:52 PM,48.0,26.1,42,30.21,10.0,SSW,5.8,16.1,N/A,,Clear,210,2012-11-18 05:52:00